Date String (YYYY-MM-DD hh:mm:ss) UTC,Instrument flags,Ambient pressure (hPa),Sample flow (lpm),Bypass flow (lpm),Sample temperature (°C),Ambient temperature (°C),ASC tube jacket temperature (°C),LED temperature (°C),Box temperature (°C),Sample RH (%),Span deviation,Mass concentration (μg/m³),Mass concentration (μg/m³),Mass concentration (μg/m³)
DateTimeUTC,F1_M11,P_M11,Q1_M11,Q2_M11,T1_M11,T2_M11,T3_M11,T4_M11,T5_M11,U1_M11,ZSPAN_M11,X0_M11,X2_M11,X1_M11
2023-03-13 09:00:00,,0826.2,4.98,0.00,22.6,21.1,00.0,31.3,24.3,12.8,0000.0,0008.50,0004.77,0004.47
2023-03-13 09:01:00,,0826.1,4.99,0.00,22.6,21.0,00.0,31.3,24.3,12.8,0000.0,0008.54,0004.78,0004.48
2023-03-13 09:02:00,,0826.1,5.00,0.00,22.6,21.0,00.0,31.3,24.3,12.9,0000.0,0008.44,0004.78,0004.48
2023-03-13 09:03:00,,0826.2,5.00,0.00,22.5,20.9,00.0,31.3,24.2,12.9,0000.0,0008.37,0004.77,0004.48
2023-03-13 09:04:00,,0826.2,5.01,0.00,22.5,20.9,00.0,31.3,24.2,12.9,0000.0,0008.13,0004.77,0004.48
2023-03-13 09:05:00,,0826.2,4.99,0.00,22.5,20.9,00.0,31.3,24.2,12.9,0000.0,0007.92,0004.77,0004.48
2023-03-13 09:06:00,,0826.3,5.00,0.00,22.5,20.8,00.0,31.3,24.2,12.9,0000.0,0007.90,0004.76,0004.48
2023-03-13 09:07:00,,0826.2,5.01,0.00,22.5,20.8,00.0,31.3,24.2,12.9,0000.0,0008.03,0004.74,0004.47
2023-03-13 09:08:00,,0826.2,4.98,0.00,22.5,20.8,00.0,31.3,24.2,12.9,0000.0,0008.65,0004.71,0004.47
2023-03-13 09:09:00,,0826.2,5.01,0.00,22.4,20.7,00.0,31.2,24.1,12.9,-000.8,0008.96,0004.69,0004.46
2023-03-13 09:10:00,,0826.2,5.01,0.00,22.4,20.7,00.0,31.2,24.1,13.0,-000.8,0009.28,0004.71,0004.46
2023-03-13 09:11:00,,0826.2,5.01,0.00,22.4,20.7,00.0,31.2,24.1,13.0,0000.0,0009.30,0004.72,0004.46
2023-03-13 09:12:00,,0826.3,4.98,0.00,22.4,20.7,00.0,31.2,24.1,13.0,-002.3,0009.27,0004.75,0004.47
2023-03-13 09:13:00,,0826.3,5.00,0.00,22.4,20.7,00.0,31.2,24.1,13.0,-001.0,0009.34,0004.79,0004.49
2023-03-13 09:14:00,,0826.3,5.02,0.00,22.4,21.5,00.0,31.2,24.3,12.9,-002.2,0009.39,0004.81,0004.50
2023-03-13 09:15:00,,0826.4,4.98,0.00,22.5,22.6,00.0,31.2,24.5,12.9,-002.1,0008.99,0004.82,0004.51
2023-03-13 09:16:00,,0826.4,5.00,0.00,22.6,23.0,00.0,31.2,24.6,12.8,-002.0,0008.89,0004.82,0004.53
2023-03-13 09:17:00,,0826.5,4.97,0.00,22.7,22.6,00.0,31.2,24.6,12.8,-002.2,0009.17,0004.84,0004.55
2023-03-13 09:18:00,,0826.5,5.00,0.00,22.7,22.3,00.0,31.3,24.5,12.7,-002.0,0008.92,0004.88,0004.58
2023-03-13 09:19:00,,0826.4,5.00,0.00,22.7,22.0,00.0,31.3,24.4,12.8,-000.3,0008.35,0004.92,0004.60
2023-03-13 09:20:00,,0826.4,5.01,0.00,22.6,21.7,00.0,31.3,24.4,12.8,0000.0,0007.94,0004.92,0004.62
2023-03-13 09:21:00,,0826.3,5.01,0.00,22.6,21.5,00.0,31.3,24.4,12.8,0000.0,0007.76,0004.94,0004.64
2023-03-13 09:22:00,,0826.3,5.00,0.00,22.6,21.3,00.0,31.3,24.3,12.8,-000.3,0008.04,0004.96,0004.65
2023-03-13 09:23:00,,0826.5,5.01,0.00,22.6,21.2,00.0,31.3,24.3,12.8,0000.0,0008.67,0004.97,0004.66
2023-03-13 09:24:00,,0826.3,5.00,0.00,22.6,21.1,00.0,31.3,24.3,12.9,0000.0,0009.05,0004.97,0004.67
2023-03-13 09:25:00,,0826.2,4.99,0.00,22.6,21.0,00.0,31.3,24.3,12.9,0000.0,0009.38,0004.99,0004.67
2023-03-13 09:26:00,,0826.2,5.00,0.00,22.5,20.9,00.0,31.3,24.3,12.9,0000.0,0009.42,0005.02,0004.69
2023-03-13 09:27:00,,0826.2,5.00,0.00,22.5,20.9,00.0,31.3,24.2,12.9,0000.0,0009.45,0005.03,0004.71
2023-03-13 09:28:00,,0826.2,4.98,0.00,22.5,20.8,00.0,31.3,24.2,12.9,-000.2,0009.30,0005.03,0004.71
2023-03-13 09:29:00,,0826.2,5.01,0.00,22.5,20.8,00.0,31.3,24.2,12.9,-000.3,0009.98,0005.01,0004.71
2023-03-13 09:30:00,,0826.2,5.01,0.00,22.5,20.7,00.0,31.2,24.1,12.9,-000.3,0010.07,0004.99,0004.70
2023-03-13 09:31:00,,0826.2,5.00,0.00,22.4,20.7,00.0,31.2,24.2,12.9,0000.0,0010.11,0005.00,0004.70
2023-03-13 09:32:00,,0826.2,5.00,0.00,22.4,20.7,00.0,31.2,24.1,12.9,-000.1,0010.08,0005.00,0004.69
2023-03-13 09:33:00,,0826.2,5.00,0.00,22.4,20.7,00.0,31.2,24.1,12.9,0000.0,0009.80,0004.99,0004.68
2023-03-13 09:34:00,,0826.2,4.99,0.00,22.4,20.6,00.0,31.2,24.1,12.8,0000.0,0009.16,0004.99,0004.67
2023-03-13 09:35:00,,0826.2,4.98,0.00,22.4,20.6,00.0,31.2,24.1,12.7,0000.0,0008.81,0005.00,0004.67
2023-03-13 09:36:00,,0826.2,5.02,0.00,22.4,21.0,00.0,31.2,24.1,12.7,0000.7,0008.61,0005.02,0004.68
2023-03-13 09:37:00,,0826.2,4.98,0.00,22.5,22.1,00.0,31.1,24.4,12.6,0000.3,0008.68,0005.04,0004.68
2023-03-13 09:38:00,,0826.2,4.96,0.00,22.6,22.9,00.0,31.2,24.5,12.4,0000.2,0008.78,0005.07,0004.68
2023-03-13 09:39:00,,0826.2,5.01,0.00,22.6,22.7,00.0,31.2,24.6,12.4,0000.0,0008.74,0005.07,0004.68
2023-03-13 09:40:00,,0826.2,5.03,0.00,22.6,22.3,00.0,31.2,24.5,12.4,-000.2,0007.97,0005.09,0004.68
2023-03-13 09:41:00,,0826.2,5.00,0.00,22.6,22.0,00.0,31.2,24.4,12.4,-000.9,0007.87,0005.09,0004.68
2023-03-13 09:42:00,,0826.2,5.00,0.00,22.6,21.7,00.0,31.3,24.4,12.4,-001.1,0008.04,0005.08,0004.69
2023-03-13 09:43:00,,0826.1,5.00,0.00,22.6,21.4,00.0,31.3,24.3,12.4,-001.4,0009.12,0005.11,0004.70
2023-03-13 09:44:00,,0826.1,4.98,0.00,22.6,21.3,00.0,31.3,24.3,12.4,-001.3,0009.34,0005.12,0004.70
2023-03-13 09:45:00,,0826.2,5.01,0.00,22.6,21.1,00.0,31.3,24.3,12.3,-000.7,0009.34,0005.11,0004.69
2023-03-13 09:46:00,,0826.2,5.00,0.00,22.5,21.0,00.0,31.3,24.3,12.3,0000.0,0009.40,0005.11,0004.69
2023-03-13 09:47:00,,0826.2,5.00,0.00,22.5,20.9,00.0,31.2,24.3,12.3,0000.0,0009.34,0005.10,0004.69
2023-03-13 09:48:00,,0826.2,5.01,0.00,22.5,20.9,00.0,31.2,24.2,12.3,0000.0,0009.26,0005.09,0004.70
2023-03-13 09:49:00,,0826.2,5.00,0.00,22.5,20.8,00.0,31.2,24.2,12.3,0000.0,0009.23,0005.10,0004.70
2023-03-13 09:50:00,,0826.1,5.00,0.00,22.5,20.8,00.0,31.2,24.2,12.3,0000.0,0009.26,0005.12,0004.70
2023-03-13 09:51:00,,0826.2,4.99,0.00,22.4,20.7,00.0,31.2,24.1,12.4,0000.0,0009.24,0005.13,0004.71
2023-03-13 09:52:00,,0826.2,5.03,0.00,22.4,20.7,00.0,31.2,24.1,12.4,0000.0,0009.27,0005.15,0004.72
2023-03-13 09:53:00,,0826.2,4.98,0.00,22.4,20.6,00.0,31.2,24.1,12.5,-000.0,0009.36,0005.19,0004.72
2023-03-13 09:54:00,,0826.2,5.00,0.00,22.4,20.5,00.0,31.2,24.1,12.5,0000.0,0008.68,0005.18,0004.71
2023-03-13 09:55:00,,0826.2,5.00,0.00,22.3,20.5,00.0,31.2,24.0,12.5,0000.0,0008.48,0005.14,0004.71
2023-03-13 09:56:00,,0826.2,5.01,0.00,22.3,20.7,00.0,31.1,24.1,12.5,0000.4,0008.45,0005.16,0004.72
2023-03-13 09:57:00,,0826.2,5.03,0.00,22.4,21.8,00.0,31.1,24.3,12.5,0000.1,0008.36,0005.15,0004.72
2023-03-13 09:58:00,,0826.2,4.97,0.00,22.5,22.7,00.0,31.1,24.5,12.4,-000.5,0008.30,0005.12,0004.72
2023-03-13 09:59:00,,0826.2,4.99,0.00,22.6,22.8,00.0,31.2,24.5,12.3,-000.5,0008.21,0005.08,0004.71
